[[{"header":{"parameterUnit":"m.s-1","parameterCategory":1,"la1":30.2991,"la2":30.254,"lo1":-89.0895,"lo2":-89.0444,"dy":0.0017,"dx":0.0017,"nx":28,"ny":28,"refTime":"2024-07-14T09:00:00:Z","depth":0,"parameterNumber":2,"parameterNumberName":"U-component_of_WINDS"},"data":[0,0,0,0,0,0,0,0,0,0,0,0,0,0,0,0,0,0,0,0,0,0,0,0,0,0,0,0,0,0,0,0,0,0,0,0,0,0,0,0,0,0,0,0,0,0,0,0,0,0,0,0,0,0,0,0,0,0,2.171,2.171,0,2.1739,2.1739,2.1739,2.1641,2.1638,2.1635,2.1633,2.1668,2.1672,2.1675,0,0,0,0,0,0,0,0,0,0,0,0,0,2.1574,2.1577,2.171,2.171,2.1711,2.1739,2.1739,2.1739,2.1642,2.1638,2.1635,2.1631,2.1667,2.1671,2.1676,0,0,0,0,0,0,0,0,0,0,0,0,0,2.1621,2.1578,2.171,2.1665,2.1661,2.1739,2.1739,2.174,2.1643,2.1638,2.1634,2.1629,2.1665,2.1671,2.1676,2.18,0,0,2.1693,2.1696,0,0,0,0,0,0,0,0,2.1619,2.1626,2.1671,2.1668,2.1664,2.1682,2.1704,2.176,2.1644,2.165,2.1632,2.1627,2.1677,2.1681,2.1696,2.1801,2.1803,2.1694,2.1697,2.17,2.1701,0,0,0,0,0,0,0,2.1615,2.1624,2.1721,2.1672,2.1668,2.1645,2.1647,2.1714,2.1688,2.1649,2.1642,2.1646,2.1674,2.1691,2.1696,2.1803,2.1694,2.1699,2.1702,2.1704,2.2008,2.2012,0,0,0,0,0,0,2.1617,2.1622,2.1721,2.1722,2.163,2.1651,2.1653,2.1681,2.1687,2.1684,2.165,2.1642,2.1684,2.169,2.1697,2.184,2.17,2.1705,2.1708,2.2003,2.2009,2.2014,0,0,0,0,0,0,2.1615,2.1627,2.1719,2.167,2.168,2.1658,2.169,2.1684,2.1701,2.1688,2.1683,2.1672,2.1681,2.169,2.1774,2.184,2.1707,2.1712,2.1998,2.2005,2.2011,2.2127,0,0,0,0,0,0,2.1611,2.1627,2.1673,2.1672,2.1683,2.1795,2.1694,2.1687,2.171,2.1699,2.1707,2.1705,2.1678,2.1766,2.1779,2.1845,2.1717,2.1991,2.2001,2.2009,2.2117,2.2137,2.2154,0,0,0,0,0,2.1607,2.1707,2.1676,2.1688,2.174,2.1799,2.1805,2.1771,2.1716,2.1762,2.1753,2.1704,2.183,2.1775,2.179,2.1858,2.1987,2.1998,2.2008,2.2109,2.2133,2.2154,0,0,0,0,0,0,2.1719,2.1706,2.1671,2.1774,2.1788,2.1782,2.184,2.1798,2.183,2.1819,2.1776,2.1779,2.1871,2.1873,2.1812,2.1976,2.1899,2.1913,2.1971,2.1994,2.2012,2.201,2.1721,0,0,0,0,0,2.1755,2.1802,2.1789,2.188,2.1889,2.1863,2.1888,2.1859,2.1873,2.1879,2.1876,2.1893,2.1935,2.1965,2.2004,2.2117,2.2117,2.2171,2.219,2.2205,2.2217,2.2274,2.2298,2.2049,2.2049,2.2048,0,0,2.1831,2.183,2.1863,2.1902,2.191,2.196,2.1869,2.1927,2.1964,2.1888,2.1966,2.1965,2.1981,2.2079,2.2122,2.2084,2.2286,2.2218,2.2231,2.2235,2.2288,2.2311,2.2332,2.2056,2.2055,2.2054,0,0,2.1995,2.1999,2.2074,2.2082,2.2093,2.2075,2.2093,2.2093,2.2088,2.2166,2.2109,2.2153,2.2229,2.2241,2.2257,2.2422,2.2377,2.2436,2.2533,2.2589,2.2608,2.2626,2.2682,2.2704,2.2449,2.2449,2.2449,0,2.2088,2.216,2.2118,2.2179,2.2197,2.2128,2.2203,2.2214,2.2239,2.2254,2.221,2.23,2.2306,2.2405,2.2445,2.2461,2.248,2.2435,2.2609,2.2626,2.2641,2.2695,2.2716,2.2456,2.2455,2.2454,2.2454,0,2.2273,2.2324,2.2384,2.2405,2.2431,2.2499,2.2467,2.2498,2.2467,2.2454,2.2532,2.2536,2.2573,2.2595,2.2567,2.2689,2.2664,2.2616,2.2538,2.2672,2.2722,2.2742,2.2466,2.2463,2.2461,2.2459,0,0,2.2511,2.2505,2.2528,2.2535,2.2541,2.258,2.2644,2.2677,2.2704,2.2723,2.2775,2.2839,2.2792,2.2811,2.2783,2.2832,2.2959,2.2777,2.2776,2.2809,2.3092,2.3128,2.3153,2.293,2.2934,2.2937,2.309,0,2.2669,2.2776,2.2739,2.2849,2.2894,2.2827,2.2883,2.2893,2.2882,2.2919,2.2907,2.2952,2.2888,2.2898,2.2944,2.2934,2.3016,2.2923,2.2978,2.2981,2.2975,2.3179,2.3218,2.3362,2.311,2.3113,2.3115,0,2.287,2.2892,2.3006,2.3,2.3018,2.3068,2.3094,2.3131,2.314,2.3128,2.3147,2.3108,2.3171,2.3093,2.3178,2.3116,2.3136,2.3134,2.3139,2.3143,2.3056,2.3186,2.3408,2.3429,2.3146,2.3143,2.3141,0,2.3028,2.3088,2.3162,2.3171,2.3168,2.3204,2.3205,2.3209,2.3231,2.3254,2.3267,2.3299,2.3316,2.3342,2.3312,2.3258,2.3401,2.3321,2.3393,2.3394,2.3426,2.3424,2.3653,2.3442,2.3441,2.3441,2.344,0,2.3209,2.3281,2.3233,2.3279,2.3356,2.3313,2.3391,2.3385,2.3389,2.3432,2.3378,2.3421,2.3379,2.3418,2.3395,2.3468,2.3477,2.3469,2.3462,2.3473,2.3474,2.3486,2.3474,2.3447,2.3445,2.3444,2.3443,0,2.34,2.3371,2.3447,2.3436,2.3435,2.3492,2.3483,2.3525,2.3508,2.3564,2.3575,2.355,2.3592,2.3564,2.3609,2.3593,2.3688,2.3668,2.3684,2.3678,2.375,2.3743,2.3993,2.4023,2.3794,2.3796,2.3798,0,2.3517,2.357,2.3563,2.3586,2.3589,2.3629,2.3649,2.3608,2.3632,2.3645,2.3685,2.3722,2.3749,2.382,2.3806,2.3839,2.3818,2.3904,2.3823,2.3832,2.3818,2.3814,2.3819,2.392,2.3923,2.3925,2.3927,0,2.3727,2.3709,2.3739,2.3764,2.3788,2.3807,2.3821,2.3844,2.3802,2.3831,2.3872,2.3893,2.3935,2.3972,2.3999,2.4,2.3957,2.3952,2.397,2.3982,2.3988,2.3983,2.3726,2.3947,2.3945,2.3943,2.3942,2.3941,2.3883,2.3925,2.3926,2.3961,2.3966,2.3979,2.4017,2.4003,2.4036,2.4065,2.4039,2.4088,2.4094,2.4124,2.4131,2.4168,2.4134,2.4161,2.4167,2.4174,2.4183,2.3982,2.4173,2.4173,2.4172,2.4172,2.4171,0,2.4088,2.4084,2.4117,2.4135,2.4163,2.4116,2.4128,2.4155,2.4197,2.4205,2.4231,2.4277,2.4312,2.43,2.4331,2.4363,2.4344,2.4373,2.437,2.437,2.4213,2.4193,2.4388,2.4387,2.4387,2.4387,2.4387,2.4387,2.4198,2.4267,2.4248,2.4318,2.4314,2.4359,2.4369,2.4381,2.4386,2.4439,2.4466,2.4457,2.4457,2.4487,2.4516,2.4512,2.4525,2.4561,2.455,2.4403,2.4382,2.4361,2.4342,2.4565,2.4565,2.4703,2.4704,2.4705]},{"header":{"parameterUnit":"m.s-1","parameterCategory":1,"la1":30.2991,"la2":30.254,"lo1":-89.0895,"lo2":-89.0444,"dy":0.0017,"dx":0.0017,"nx":28,"ny":28,"refTime":"2024-07-14T09:00:00:Z","depth":0,"parameterNumber":3,"parameterNumberName":"V-component_of_WINDS"},"data":[0,0,0,0,0,0,0,0,0,0,0,0,0,0,0,0,0,0,0,0,0,0,0,0,0,0,0,0,0,0,0,0,0,0,0,0,0,0,0,0,0,0,0,0,0,0,0,0,0,0,0,0,0,0,0,0,0,0,2.3665,2.3667,0,2.3788,2.3789,2.3791,2.378,2.3778,2.3776,2.3774,2.3898,2.3903,2.3908,0,0,0,0,0,0,0,0,0,0,0,0,0,2.3419,2.3424,2.3665,2.3667,2.3668,2.3788,2.3789,2.3791,2.378,2.3778,2.3776,2.3774,2.3896,2.3902,2.3908,0,0,0,0,0,0,0,0,0,0,0,0,0,2.3532,2.3425,2.3665,2.3677,2.368,2.3787,2.3789,2.3791,2.3781,2.3778,2.3775,2.3773,2.3894,2.3902,2.3909,2.4011,0,0,2.3932,2.3935,0,0,0,0,0,0,0,0,2.3526,2.3541,2.3674,2.3677,2.3679,2.3766,2.3748,2.3865,2.3781,2.3742,2.3774,2.3771,2.3856,2.3867,2.3896,2.4017,2.4023,2.3933,2.3937,2.3941,2.3943,0,0,0,0,0,0,0,2.3518,2.3536,2.3714,2.3676,2.3679,2.3676,2.3689,2.377,2.3813,2.3746,2.3745,2.376,2.3857,2.3888,2.3898,2.4024,2.3933,2.3939,2.3944,2.3947,2.4234,2.4237,0,0,0,0,0,0,2.3508,2.3529,2.371,2.3717,2.3594,2.3683,2.3697,2.3741,2.3812,2.3821,2.3762,2.3759,2.3877,2.389,2.3903,2.4026,2.394,2.3948,2.3952,2.4231,2.4235,2.4238,0,0,0,0,0,0,2.3502,2.3524,2.3705,2.3623,2.3646,2.369,2.3739,2.3745,2.3776,2.3825,2.3832,2.3786,2.3875,2.3892,2.3984,2.403,2.3951,2.3958,2.4227,2.4232,2.4236,2.4274,0,0,0,0,0,0,2.3495,2.3522,2.3562,2.3624,2.365,2.3785,2.3742,2.3749,2.3789,2.3786,2.385,2.3857,2.3874,2.3973,2.3992,2.4039,2.3964,2.4223,2.423,2.4235,2.4269,2.428,2.4289,0,0,0,0,0,2.3487,2.3568,2.3564,2.3586,2.3702,2.3788,2.3803,2.3821,2.3793,2.3833,2.3864,2.3855,2.4022,2.3983,2.4004,2.4054,2.4221,2.4228,2.4235,2.4265,2.4278,2.4289,0,0,0,0,0,0,2.351,2.3576,2.3573,2.3677,2.3727,2.3786,2.3837,2.3834,2.3893,2.3888,2.3907,2.3921,2.4014,2.4043,2.3998,2.4156,2.4118,2.4129,2.4133,2.4146,2.4156,2.4146,2.397,0,0,0,0,0,2.3527,2.3592,2.3647,2.3733,2.3758,2.3794,2.3832,2.3842,2.3894,2.3915,2.3953,2.4003,2.4066,2.4108,2.4169,2.4273,2.4286,2.4318,2.4328,2.4336,2.4345,2.4401,2.4415,2.4261,2.4261,2.4261,0,0,2.3563,2.3608,2.3648,2.3739,2.3779,2.3845,2.3811,2.3883,2.3932,2.3925,2.4014,2.4044,2.4101,2.4199,2.4245,2.4227,2.4391,2.4345,2.4351,2.4356,2.441,2.4424,2.4437,2.4266,2.4265,2.4264,0,0,2.3663,2.3704,2.3779,2.382,2.3881,2.3903,2.3921,2.3981,2.4,2.409,2.4086,2.4144,2.4254,2.4294,2.4329,2.4443,2.4436,2.4462,2.4513,2.4567,2.4579,2.459,2.4629,2.4643,2.4471,2.4471,2.4472,0,2.37,2.38,2.3818,2.3891,2.393,2.3928,2.4004,2.4042,2.4119,2.4146,2.4125,2.4262,2.43,2.4407,2.4434,2.4463,2.4483,2.4455,2.4576,2.4587,2.4597,2.4635,2.465,2.4474,2.4474,2.4474,2.4473,0,2.3842,2.3911,2.3965,2.404,2.4086,2.416,2.4188,2.4232,2.4237,2.4262,2.4352,2.4398,2.4468,2.4494,2.45,2.4602,2.4588,2.4572,2.4533,2.4614,2.465,2.4664,2.4478,2.4477,2.4476,2.4476,0,0,2.396,2.4043,2.4063,2.4096,2.4162,2.4216,2.4289,2.4357,2.4394,2.4447,2.4508,2.46,2.4584,2.4624,2.4635,2.4682,2.4767,2.4659,2.4661,2.4676,2.488,2.4891,2.4908,2.4763,2.4766,2.4768,2.4874,0,2.4065,2.4195,2.4213,2.4327,2.4391,2.4389,2.4452,2.4499,2.4523,2.458,2.4606,2.4671,2.4646,2.467,2.4717,2.4747,2.4808,2.4739,2.4818,2.4821,2.4803,2.4927,2.494,2.5037,2.4889,2.4891,2.4893,0,2.4206,2.4263,2.4383,2.4439,2.4467,2.4523,2.4587,2.4642,2.4694,2.4708,2.4752,2.4756,2.483,2.4789,2.4891,2.4844,2.4877,2.4896,2.49,2.4908,2.4861,2.4936,2.5069,2.5083,2.4915,2.4913,2.4912,0,2.4278,2.4385,2.447,2.4499,2.4567,2.4607,2.4637,2.4687,2.4726,2.4782,2.4807,2.487,2.4905,2.4953,2.4973,2.4942,2.5073,2.5034,2.5086,2.5085,2.5113,2.5111,2.5252,2.5136,2.5136,2.5136,2.5135,0,2.4393,2.4467,2.4504,2.4556,2.4638,2.4657,2.4738,2.4766,2.481,2.4867,2.4869,2.4922,2.4947,2.5004,2.502,2.5101,2.5116,2.5129,2.5132,2.5129,2.5127,2.515,2.5143,2.514,2.5139,2.5138,2.5137,0,2.4487,2.4515,2.4608,2.4665,2.4681,2.4738,2.4786,2.4837,2.486,2.4932,2.495,2.4988,2.5054,2.508,2.5161,2.5172,2.5265,2.5263,2.5247,2.5248,2.5298,2.5292,2.5458,2.548,2.5351,2.5352,2.5353,0,2.4559,2.4615,2.4678,2.4716,2.4748,2.481,2.485,2.4871,2.4913,2.4976,2.5018,2.5085,2.5139,2.5246,2.5279,2.5341,2.534,2.5394,2.535,2.5344,2.534,2.5336,2.5341,2.5402,2.5404,2.5405,2.5406,0,2.4682,2.4692,2.4751,2.4814,2.4862,2.4913,2.4962,2.4993,2.5021,2.5068,2.5136,2.5179,2.5261,2.5327,2.539,2.542,2.5417,2.5419,2.5434,2.5431,2.5419,2.5424,2.5269,2.5415,2.5414,2.5414,2.5413,2.5413,2.4766,2.4815,2.4867,2.4931,2.497,2.5016,2.5066,2.5095,2.5153,2.5223,2.5231,2.5304,2.5354,2.5439,2.5471,2.5528,2.5513,2.5535,2.5541,2.5545,2.5548,2.541,2.5539,2.5539,2.5539,2.5539,2.5538,0,2.4888,2.4921,2.498,2.5048,2.5099,2.5092,2.5146,2.5188,2.5253,2.53,2.5353,2.5431,2.5494,2.5532,2.5595,2.5633,2.5633,2.5649,2.5646,2.5653,2.5558,2.5538,2.5648,2.5648,2.5648,2.5648,2.5648,2.5648,2.4957,2.504,2.5057,2.5158,2.519,2.5262,2.5293,2.5335,2.5372,2.5459,2.5512,2.5536,2.5579,2.5646,2.5703,2.5712,2.5735,2.5752,2.576,2.5671,2.5659,2.5649,2.563,2.5757,2.5757,2.5849,2.585,2.5851]}]]